QPF
0.04 0.03 0.02 0.02 0.02 0.04 0.06 0.07 0.09 0.11 0.12 0.12 0.13 0.14 0.17 0.15 0.13 0.14 0.14 0.13 0.11 0.10 0.08 0.06 0.05 0.04 0.03 0.02 0.01 0.01 0.01 0.01 0.01 0.01 0.01 0.01 0.04 0.07 0.08 0.06 0.03 0.02 0.02
0.04 0.04 0.05 0.03 0.02 0.02 0.03 0.04 0.04 0.06 0.08 0.11 0.11 0.12 0.18 0.21 0.24 0.21 0.18 0.16 0.13 0.09 0.07 0.06 0.05 0.04 0.04 0.03 0.02 0.01 0.01 0.01 0.01 0.01 0.01 0.02 0.05 0.07 0.10 0.10 0.06 0.04 0.05
0.09 0.06 0.05 0.04 0.03 0.04 0.03 0.03 0.04 0.05 0.06 0.09 0.15 0.16 0.18 0.21 0.26 0.25 0.20 0.15 0.12 0.09 0.07 0.06 0.04 0.04 0.05 0.03 0.02 0.01 0.01 0.01 0.01 0.01 0.01 0.02 0.04 0.08 0.10 0.11 0.11 0.10 0.10
0.12 0.11 0.10 0.08 0.06 0.05 0.05 0.06 0.06 0.08 0.11 0.11 0.12 0.14 0.17 0.16 0.18 0.18 0.16 0.14 0.12 0.10 0.10 0.08 0.06 0.06 0.04 0.03 0.02 0.01 0.01 0.01 0.01 0.01 0.02 0.03 0.03 0.05 0.06 0.09 0.12 0.13 0.13
0.08 0.09 0.09 0.08 0.06 0.05 0.05 0.06 0.06 0.06 0.07 0.08 0.08 0.08 0.09 0.08 0.07 0.07 0.06 0.07 0.07 0.06 0.07 0.08 0.08 0.06 0.04 0.03 0.01 0.01 0.01 0.01 0.02 0.02 0.02 0.03 0.03 0.04 0.05 0.07 0.09 0.12 0.13
0.02 0.03 0.03 0.03 0.03 0.02 0.02 0.02 0.02 0.01 0.01 0.01 0.01 0.02 0.02 0.02 0.01 0.01 0.01 0.01 0.02 0.03 0.05 0.07 0.08 0.06 0.03 0.02 0.01 0.01 0.00 0.00 0.01 0.02 0.03 0.04 0.04 0.03 0.04 0.05 0.07 0.07 0.10
0.00 0.00 0.00 0.00 0.00 0.00 0.00 0.00 0.00 0.00 0.00 0.00 0.00 0.00 0.00 0.00 0.00 0.00 0.00 0.00 0.00 0.01 0.04 0.07 0.09 0.09 0.07 0.07 0.05 0.02 0.02 0.01 0.01 0.01 0.02 0.02 0.01 0.01 0.01 0.02 0.03 0.05 0.08
0.00 0.00 0.00 0.00 0.00 0.00 0.00 0.00 0.00 0.00 0.00 0.00 0.00 0.00 0.00 0.00 0.00 0.00 0.00 0.00 0.00 0.01 0.03 0.07 0.10 0.12 0.14 0.13 0.09 0.07 0.06 0.04 0.02 0.01 0.01 0.01 0.01 0.00 0.01 0.02 0.02 0.03 0.03
0.00 0.00 0.00 0.00 0.00 0.00 0.00 0.00 0.00 0.00 0.00 0.00 0.00 0.00 0.00 0.00 0.00 0.00 0.00 0.00 0.00 0.01 0.02 0.05 0.07 0.11 0.15 0.14 0.09 0.08 0.08 0.06 0.05 0.04 0.02 0.01 0.01 0.01 0.01 0.00 0.00 0.01 0.01
0.00 0.00 0.00 0.00 0.00 0.00 0.00 0.00 0.00 0.00 0.00 0.00 0.00 0.00 0.00 0.00 0.00 0.00 0.00 0.00 0.00 0.00 0.01 0.02 0.05 0.08 0.10 0.08 0.05 0.04 0.05 0.06 0.06 0.06 0.05 0.03 0.01 0.01 0.01 0.00 0.00 0.00 0.00
0.00 0.00 0.00 0.00 0.00 0.00 0.00 0.00 0.00 0.00 0.00 0.00 0.00 0.00 0.00 0.00 0.00 0.00 0.00 0.00 0.00 0.00 0.00 0.01 0.01 0.02 0.04 0.04 0.03 0.03 0.03 0.03 0.04 0.06 0.06 0.05 0.03 0.02 0.01 0.01 0.00 0.00 0.00
0.00 0.00 0.00 0.00 0.00 0.00 0.00 0.00 0.00 0.00 0.00 0.00 0.00 0.00 0.00 0.00 0.00 0.00 0.00 0.00 0.00 0.00 0.00 0.00 0.00 0.01 0.01 0.01 0.02 0.02 0.02 0.02 0.03 0.05 0.06 0.04 0.03 0.02 0.02 0.01 0.00 0.00 0.00
0.00 0.00 0.00 0.00 0.00 0.00 0.00 0.00 0.00 0.00 0.00 0.00 0.00 0.00 0.00 0.00 0.00 0.00 0.00 0.00 0.00 0.00 0.00 0.00 0.00 0.00 0.00 0.01 0.01 0.01 0.01 0.02 0.03 0.04 0.04 0.04 0.04 0.03 0.01 0.01 0.01 0.00 0.00
0.00 0.00 0.00 0.00 0.00 0.00 0.00 0.00 0.00 0.00 0.00 0.00 0.00 0.00 0.00 0.00 0.00 0.00 0.00 0.00 0.00 0.00 0.00 0.00 0.00 0.00 0.01 0.01 0.01 0.01 0.02 0.03 0.03 0.03 0.03 0.02 0.03 0.03 0.01 0.00 0.00 0.00 0.00
0.00 0.00 0.00 0.00 0.00 0.00 0.00 0.00 0.00 0.00 0.00 0.00 0.00 0.00 0.00 0.00 0.00 0.00 0.00 0.00 0.00 0.00 0.00 0.00 0.01 0.02 0.02 0.02 0.03 0.04 0.04 0.03 0.02 0.02 0.02 0.01 0.02 0.01 0.01 0.00 0.00 0.00 0.00
0.00 0.00 0.00 0.00 0.00 0.00 0.00 0.00 0.00 0.00 0.00 0.00 0.00 0.00 0.00 0.00 0.00 0.00 0.00 0.00 0.00 0.00 0.00 0.00 0.01 0.02 0.02 0.02 0.03 0.03 0.04 0.03 0.01 0.01 0.01 0.00 0.00 0.00 0.00 0.00 0.00 0.00 0.00
0.00 0.00 0.00 0.00 0.00 0.00 0.00 0.00 0.00 0.00 0.00 0.00 0.00 0.00 0.00 0.00 0.00 0.00 0.00 0.00 0.00 0.00 0.00 0.00 0.01 0.01 0.02 0.02 0.02 0.02 0.02 0.01 0.01 0.00 0.00 0.00 0.00 0.00 0.00 0.00 0.00 0.00 0.00
0.00 0.00 0.00 0.00 0.00 0.00 0.00 0.00 0.00 0.00 0.00 0.00 0.00 0.00 0.00 0.00 0.00 0.00 0.00 0.00 0.00 0.00 0.00 0.00 0.00 0.01 0.01 0.01 0.01 0.01 0.00 0.00 0.00 0.00 0.00 0.00 0.00 0.00 0.00 0.00 0.00 0.00 0.00
0.00 0.00 0.00 0.00 0.00 0.00 0.00 0.00 0.00 0.00 0.00 0.00 0.00 0.00 0.00 0.00 0.00 0.00 0.00 0.00 0.00 0.00 0.00 0.00 0.00 0.00 0.00 0.00 0.00 0.00 0.00 0.00 0.00 0.00 0.00 0.00 0.00 0.00 0.00 0.00 0.00 0.00 0.00
0.00 0.00 0.00 0.00 0.00 0.00 0.00 0.00 0.00 0.00 0.00 0.00 0.00 0.00 0.00 0.00 0.00 0.00 0.00 0.00 0.00 0.00 0.00 0.00 0.00 0.00 0.00 0.00 0.00 0.00 0.00 0.00 0.00 0.00 0.00 0.00 0.00 0.00 0.00 0.00 0.00 0.00 0.00
0.00 0.00 0.00 0.00 0.00 0.00 0.00 0.00 0.00 0.00 0.00 0.00 0.00 0.00 0.00 0.00 0.00 0.00 0.00 0.00 0.00 0.00 0.00 0.00 0.00 0.00 0.00 0.00 0.00 0.00 0.00 0.00 0.00 0.00 0.00 0.00 0.00 0.00 0.00 0.00 0.00 0.00 0.00
0.00 0.00 0.00 0.00 0.00 0.00 0.00 0.00 0.00 0.00 0.00 0.00 0.00 0.00 0.00 0.00 0.00 0.00 0.00 0.00 0.00 0.00 0.00 0.00 0.00 0.00 0.00 0.00 0.00 0.00 0.00 0.00 0.00 0.00 0.00 0.00 0.00 0.00 0.00 0.00 0.00 0.00 0.00
0.00 0.00 0.00 0.00 0.00 0.00 0.00 0.00 0.00 0.00 0.00 0.00 0.00 0.00 0.00 0.00 0.00 0.00 0.00 0.00 0.00 0.00 0.00 0.00 0.00 0.00 0.00 0.00 0.00 0.00 0.00 0.00 0.00 0.00 0.00 0.00 0.00 0.00 0.00 0.00 0.00 0.00 0.00
0.00 0.00 0.00 0.00 0.00 0.00 0.00 0.00 0.00 0.00 0.00 0.00 0.00 0.00 0.00 0.00 0.00 0.00 0.00 0.00 0.00 0.00 0.00 0.00 0.00 0.00 0.00 0.00 0.00 0.00 0.00 0.00 0.00 0.00 0.00 0.00 0.00 0.00 0.00 0.00 0.00 0.00 0.00
0.00 0.00 0.00 0.00 0.00 0.00 0.00 0.00 0.00 0.00 0.00 0.00 0.00 0.00 0.00 0.00 0.00 0.00 0.00 0.00 0.00 0.00 0.00 0.00 0.00 0.00 0.00 0.00 0.00 0.00 0.00 0.00 0.00 0.00 0.00 0.00 0.00 0.00 0.00 0.00 0.00 0.00 0.00
0.00 0.00 0.00 0.00 0.00 0.00 0.00 0.00 0.00 0.00 0.00 0.00 0.00 0.00 0.00 0.00 0.00 0.00 0.00 0.00 0.00 0.00 0.00 0.00 0.00 0.00 0.00 0.00 0.00 0.00 0.00 0.00 0.00 0.00 0.00 0.00 0.00 0.00 0.00 0.00 0.00 0.00 0.00
MSLP
1014.35 1014.01 1013.75 1013.56 1013.44 1013.36 1013.32 1013.30 1013.31 1013.33 1013.36 1013.41 1013.48 1013.55 1013.62 1013.68 1013.74 1013.78 1013.81 1013.84 1013.87 1013.91 1013.99 1014.10 1014.27 1014.47 1014.71 1014.96 1015.20 1015.41 1015.56 1015.64 1015.64 1015.57 1015.45 1015.30 1015.16 1015.07 1015.02 1015.05 1015.15 1015.31 1015.51
1014.81 1014.48 1014.21 1014.01 1013.87 1013.77 1013.70 1013.66 1013.63 1013.62 1013.61 1013.63 1013.65 1013.68 1013.72 1013.76 1013.78 1013.79 1013.79 1013.78 1013.76 1013.75 1013.77 1013.82 1013.92 1014.08 1014.28 1014.51 1014.76 1014.99 1015.19 1015.32 1015.39 1015.40 1015.34 1015.25 1015.15 1015.07 1015.02 1015.04 1015.11 1015.24 1015.41
1015.31 1014.97 1014.70 1014.48 1014.32 1014.19 1014.09 1014.01 1013.96 1013.91 1013.88 1013.86 1013.85 1013.85 1013.86 1013.86 1013.85 1013.83 1013.79 1013.73 1013.66 1013.60 1013.57 1013.57 1013.62 1013.73 1013.91 1014.13 1014.38 1014.64 1014.88 1015.08 1015.21 1015.28 1015.28 1015.24 1015.17 1015.11 1015.08 1015.09 1015.15 1015.26 1015.40
1015.84 1015.51 1015.23 1014.99 1014.80 1014.64 1014.52 1014.41 1014.32 1014.25 1014.19 1014.15 1014.12 1014.09 1014.06 1014.03 1013.99 1013.92 1013.83 1013.73 1013.61 1013.51 1013.42 1013.38 1013.40 1013.48 1013.64 1013.85 1014.11 1014.39 1014.66 1014.90 1015.08 1015.20 1015.25 1015.24 1015.21 1015.17 1015.15 1015.16 1015.22 1015.32 1015.46
1016.39 1016.08 1015.80 1015.56 1015.34 1015.16 1015.01 1014.88 1014.76 1014.67 1014.60 1014.53 1014.48 1014.42 1014.37 1014.30 1014.21 1014.09 1013.96 1013.80 1013.64 1013.49 1013.37 1013.30 1013.28 1013.35 1013.49 1013.70 1013.97 1014.26 1014.54 1014.80 1015.01 1015.15 1015.23 1015.25 1015.23 1015.21 1015.20 1015.22 1015.29 1015.40 1015.54
1016.94 1016.66 1016.40 1016.16 1015.94 1015.75 1015.57 1015.43 1015.30 1015.20 1015.11 1015.03 1014.95 1014.87 1014.78 1014.66 1014.53 1014.36 1014.18 1013.98 1013.77 1013.58 1013.43 1013.33 1013.30 1013.35 1013.48 1013.69 1013.94 1014.23 1014.51 1014.77 1014.98 1015.12 1015.20 1015.23 1015.23 1015.21 1015.22 1015.26 1015.34 1015.47 1015.62
1017.47 1017.24 1017.01 1016.79 1016.58 1016.38 1016.21 1016.06 1015.93 1015.81 1015.71 1015.62 1015.52 1015.41 1015.28 1015.13 1014.94 1014.73 1014.49 1014.24 1014.00 1013.78 1013.60 1013.49 1013.44 1013.48 1013.60 1013.79 1014.03 1014.29 1014.56 1014.79 1014.98 1015.11 1015.18 1015.20 1015.20 1015.19 1015.21 1015.26 1015.37 1015.52 1015.70
1017.95 1017.77 1017.59 1017.40 1017.21 1017.04 1016.88 1016.73 1016.61 1016.50 1016.39 1016.28 1016.16 1016.02 1015.85 1015.65 1015.42 1015.15 1014.87 1014.58 1014.31 1014.07 1013.87 1013.74 1013.68 1013.71 1013.81 1013.98 1014.19 1014.43 1014.66 1014.86 1015.02 1015.12 1015.17 1015.18 1015.18 1015.17 1015.20 1015.27 1015.40 1015.57 1015.78
1018.33 1018.22 1018.09 1017.95 1017.81 1017.67 1017.54 1017.41 1017.30 1017.20 1017.09 1016.97 1016.82 1016.65 1016.44 1016.19 1015.91 1015.60 1015.28 1014.96 1014.66 1014.40 1014.19 1014.05 1013.98 1013.99 1014.07 1014.21 1014.40 1014.60 1014.79 1014.96 1015.09 1015.17 1015.21 1015.21 1015.21 1015.21 1015.24 1015.33 1015.47 1015.66 1015.89
1018.62 1018.56 1018.50 1018.41 1018.33 1018.23 1018.14 1018.05 1017.96 1017.87 1017.76 1017.62 1017.45 1017.25 1017.00 1016.71 1016.38 1016.04 1015.68 1015.34 1015.02 1014.74 1014.52 1014.37 1014.29 1014.29 1014.35 1014.46 1014.61 1014.78 1014.94 1015.09 1015.20 1015.27 1015.31 1015.32 1015.32 1015.34 1015.39 1015.48 1015.62 1015.82 1016.05
1018.80 1018.80 1018.79 1018.77 1018.74 1018.71 1018.67 1018.61 1018.55 1018.47 1018.36 1018.21 1018.02 1017.78 1017.50 1017.17 1016.81 1016.43 1016.05 1015.69 1015.36 1015.08 1014.85 1014.69 1014.60 1014.57 1014.61 1014.70 1014.82 1014.96 1015.11 1015.24 1015.35 1015.43 1015.49 1015.52 1015.55 1015.59 1015.65 1015.75 1015.89 1016.07 1016.29
1018.91 1018.95 1019.00 1019.03 1019.07 1019.09 1019.10 1019.09 1019.06 1019.00 1018.89 1018.73 1018.52 1018.25 1017.93 1017.57 1017.19 1016.79 1016.40 1016.03 1015.69 1015.41 1015.18 1015.01 1014.90 1014.85 1014.87 1014.93 1015.02 1015.15 1015.28 1015.42 1015.55 1015.66 1015.75 1015.83 1015.89 1015.96 1016.04 1016.14 1016.27 1016.43 1016.62
1018.97 1019.04 1019.13 1019.22 1019.30 1019.38 1019.45 1019.48 1019.48 1019.44 1019.34 1019.17 1018.94 1018.65 1018.31 1017.94 1017.54 1017.13 1016.74 1016.37 1016.04 1015.76 1015.53 1015.36 1015.23 1015.16 1015.15 1015.18 1015.26 1015.36 1015.50 1015.65 1015.80 1015.96 1016.10 1016.22 1016.34 1016.44 1016.53 1016.63 1016.74 1016.87 1017.02
1019.02 1019.11 1019.22 1019.35 1019.49 1019.62 1019.73 1019.81 1019.84 1019.81 1019.72 1019.55 1019.31 1019.01 1018.66 1018.28 1017.89 1017.49 1017.12 1016.77 1016.46 1016.19 1015.96 1015.78 1015.65 1015.56 1015.51 1015.51 1015.56 1015.65 1015.78 1015.95 1016.13 1016.32 1016.52 1016.69 1016.85 1016.99 1017.10 1017.20 1017.29 1017.38 1017.48
1019.08 1019.17 1019.30 1019.46 1019.64 1019.81 1019.96 1020.08 1020.14 1020.13 1020.04 1019.88 1019.65 1019.35 1019.01 1018.64 1018.27 1017.90 1017.56 1017.25 1016.97 1016.73 1016.52 1016.34 1016.19 1016.08 1016.00 1015.97 1015.99 1016.06 1016.18 1016.34 1016.54 1016.76 1017.00 1017.21 1017.41 1017.58 1017.71 1017.80 1017.87 1017.93 1017.98
1019.16 1019.24 1019.38 1019.56 1019.76 1019.97 1020.15 1020.30 1020.39 1020.40 1020.33 1020.18 1019.96 1019.68 1019.37 1019.04 1018.70 1018.39 1018.10 1017.84 1017.61 1017.41 1017.22 1017.06 1016.91 1016.78 1016.67 1016.60 1016.58 1016.62 1016.71 1016.85 1017.05 1017.28 1017.53 1017.77 1017.99 1018.17 1018.31 1018.40 1018.46 1018.49 1018.51
1019.25 1019.32 1019.45 1019.64 1019.86 1020.09 1020.30 1020.47 1020.58 1020.61 1020.57 1020.44 1020.25 1020.00 1019.73 1019.45 1019.18 1018.93 1018.71 1018.52 1018.36 1018.21 1018.06 1017.92 1017.78 1017.63 1017.50 1017.40 1017.33 1017.32 1017.37 1017.48 1017.65 1017.86 1018.10 1018.34 1018.56 1018.75 1018.89 1018.98 1019.03 1019.04 1019.04
1019.32 1019.37 1019.50 1019.69 1019.92 1020.16 1020.39 1020.58 1020.71 1020.77 1020.74 1020.65 1020.49 1020.29 1020.08 1019.86 1019.66 1019.50 1019.36 1019.25 1019.16 1019.08 1018.98 1018.87 1018.74 1018.60 1018.45 1018.31 1018.20 1018.14 1018.14 1018.20 1018.32 1018.49 1018.69 1018.91 1019.12 1019.29 1019.43 1019.52 1019.56 1019.57 1019.57
1019.35 1019.39 1019.51 1019.70 1019.93 1020.18 1020.42 1020.62 1020.77 1020.84 1020.85 1020.79 1020.68 1020.53 1020.38 1020.23 1020.12 1020.03 1019.98 1019.96 1019.94 1019.93 1019.89 1019.82 1019.72 1019.59 1019.43 1019.27 1019.12 1019.01 1018.95 1018.95 1019.01 1019.12 1019.28 1019.45 1019.63 1019.79 1019.91 1020.00 1020.05 1020.08 1020.09
1019.33 1019.36 1019.47 1019.65 1019.87 1020.12 1020.36 1020.58 1020.74 1020.84 1020.87 1020.85 1020.78 1020.69 1020.60 1020.52 1020.48 1020.48 1020.51 1020.56 1020.62 1020.67 1020.69 1020.67 1020.60 1020.48 1020.33 1020.15 1019.98 1019.83 1019.72 1019.66 1019.66 1019.71 1019.81 1019.94 1020.08 1020.21 1020.33 1020.42 1020.49 1020.53 1020.57
1019.26 1019.28 1019.37 1019.54 1019.76 1020.00 1020.24 1020.45 1020.62 1020.74 1020.80 1020.81 1020.79 1020.75 1020.72 1020.71 1020.73 1020.79 1020.88 1021.00 1021.12 1021.22 1021.29 1021.32 1021.28 1021.19 1021.05 1020.88 1020.69 1020.52 1020.37 1020.27 1020.22 1020.22 1020.27 1020.35 1020.45 1020.57 1020.68 1020.77 1020.86 1020.94 1021.01
1019.16 1019.16 1019.23 1019.38 1019.58 1019.80 1020.03 1020.24 1020.42 1020.55 1020.64 1020.69 1020.70 1020.71 1020.73 1020.77 1020.84 1020.95 1021.09 1021.24 1021.40 1021.55 1021.65 1021.71 1021.71 1021.64 1021.53 1021.37 1021.19 1021.02 1020.85 1020.73 1020.64 1020.60 1020.61 1020.66 1020.74 1020.84 1020.94 1021.05 1021.16 1021.27 1021.38
1019.03 1019.01 1019.06 1019.18 1019.35 1019.55 1019.76 1019.97 1020.14 1020.29 1020.40 1020.47 1020.53 1020.58 1020.63 1020.71 1020.81 1020.95 1021.12 1021.29 1021.47 1021.64 1021.76 1021.84 1021.87 1021.83 1021.75 1021.62 1021.46 1021.30 1021.14 1021.01 1020.92 1020.86 1020.85 1020.88 1020.94 1021.03 1021.13 1021.26 1021.39 1021.53 1021.68
1018.89 1018.84 1018.86 1018.94 1019.08 1019.24 1019.43 1019.62 1019.80 1019.95 1020.07 1020.18 1020.26 1020.35 1020.44 1020.54 1020.67 1020.82 1021.00 1021.18 1021.36 1021.53 1021.67 1021.76 1021.81 1021.80 1021.75 1021.65 1021.53 1021.40 1021.27 1021.15 1021.07 1021.01 1021.00 1021.02 1021.08 1021.16 1021.27 1021.41 1021.56 1021.72 1021.90
1018.73 1018.64 1018.62 1018.66 1018.75 1018.88 1019.04 1019.20 1019.37 1019.53 1019.67 1019.80 1019.92 1020.03 1020.15 1020.28 1020.43 1020.59 1020.77 1020.96 1021.14 1021.30 1021.44 1021.55 1021.61 1021.63 1021.61 1021.56 1021.48 1021.38 1021.29 1021.21 1021.14 1021.10 1021.10 1021.12 1021.18 1021.27 1021.39 1021.53 1021.70 1021.88 1022.08
1018.52 1018.40 1018.33 1018.32 1018.37 1018.45 1018.57 1018.72 1018.87 1019.03 1019.18 1019.33 1019.48 1019.63 1019.78 1019.94 1020.11 1020.29 1020.47 1020.66 1020.84 1021.01 1021.16 1021.27 1021.36 1021.41 1021.42 1021.41 1021.37 1021.33 1021.28 1021.23 1021.20 1021.18 1021.20 1021.23 1021.30 1021.39 1021.51 1021.66 1021.83 1022.02 1022.22
Thickness
5660 5665 5669 5672 5675 5677 5678 5679 5680 5680 5681 5680 5680 5679 5679 5678 5678 5677 5676 5676 5675 5675 5676 5677 5677 5679 5679 5680 5681 5681 5681 5679 5676 5679 5683 5687 5688 5689 5689 5687 5685 5683 5681
5653 5657 5660 5663 5665 5667 5668 5670 5671 5671 5672 5672 5671 5671 5670 5670 5670 5669 5669 5668 5667 5668 5669 5670 5671 5673 5673 5674 5674 5675 5675 5675 5673 5673 5677 5680 5682 5684 5683 5682 5681 5679 5678
5649 5652 5655 5657 5659 5660 5661 5663 5664 5664 5665 5665 5665 5664 5663 5663 5663 5663 5662 5662 5662 5663 5665 5665 5667 5668 5668 5669 5669 5669 5670 5671 5670 5669 5670 5674 5676 5678 5677 5677 5676 5676 5675
5646 5649 5650 5652 5654 5656 5657 5658 5659 5659 5659 5658 5657 5656 5656 5655 5655 5656 5657 5657 5657 5659 5661 5663 5664 5664 5664 5664 5664 5664 5664 5664 5664 5664 5665 5667 5669 5672 5672 5670 5669 5670 5670
5645 5646 5647 5649 5651 5652 5652 5653 5653 5652 5652 5650 5649 5648 5648 5649 5649 5649 5651 5652 5653 5655 5657 5659 5661 5662 5662 5661 5660 5659 5658 5657 5657 5657 5658 5660 5662 5663 5664 5665 5664 5664 5664
5643 5644 5645 5646 5646 5646 5646 5646 5646 5644 5643 5642 5641 5640 5640 5641 5643 5645 5647 5647 5649 5650 5651 5653 5655 5656 5656 5656 5655 5655 5654 5652 5651 5652 5652 5653 5655 5657 5659 5659 5659 5657 5656
5642 5642 5642 5643 5642 5642 5642 5641 5639 5637 5636 5635 5633 5633 5632 5634 5636 5638 5640 5641 5642 5643 5645 5646 5648 5648 5648 5647 5648 5648 5648 5649 5649 5648 5647 5648 5650 5652 5653 5653 5653 5652 5651
5642 5641 5641 5641 5639 5638 5637 5635 5633 5631 5629 5626 5625 5624 5623 5624 5627 5628 5630 5631 5633 5634 5636 5638 5638 5639 5640 5640 5640 5640 5641 5642 5643 5643 5644 5645 5646 5648 5649 5649 5649 5647 5646
5642 5641 5640 5639 5636 5634 5632 5629 5627 5625 5622 5619 5616 5614 5613 5613 5616 5617 5619 5620 5622 5624 5626 5628 5630 5631 5633 5635 5634 5634 5634 5635 5638 5638 5638 5639 5640 5642 5643 5643 5641 5640 5638
5644 5643 5640 5638 5635 5631 5628 5626 5623 5620 5616 5613 5609 5606 5604 5603 5605 5607 5609 5610 5612 5613 5616 5618 5621 5623 5626 5628 5629 5629 5628 5629 5631 5632 5632 5632 5633 5635 5636 5637 5636 5634 5632
5647 5644 5640 5637 5633 5629 5626 5623 5619 5615 5611 5607 5603 5600 5599 5597 5598 5599 5601 5602 5603 5605 5607 5609 5611 5615 5618 5621 5623 5624 5625 5626 5626 5626 5626 5626 5627 5628 5629 5630 5631 5631 5629
5649 5644 5640 5636 5633 5628 5624 5620 5616 5612 5607 5603 5599 5597 5595 5594 5594 5594 5595 5596 5598 5598 5600 5602 5604 5608 5611 5614 5616 5618 5621 5621 5621 5621 5621 5621 5622 5622 5624 5625 5626 5626 5627
5650 5644 5639 5635 5630 5626 5622 5618 5613 5609 5605 5600 5597 5594 5592 5591 5591 5591 5591 5591 5592 5593 5594 5597 5599 5602 5604 5607 5610 5613 5615 5616 5616 5617 5617 5617 5618 5619 5621 5621 5621 5621 5621
5651 5645 5640 5634 5629 5625 5621 5617 5613 5608 5604 5600 5597 5593 5590 5589 5588 5587 5586 5587 5587 5588 5589 5591 5593 5595 5597 5601 5604 5607 5610 5612 5613 5614 5614 5614 5615 5616 5617 5617 5616 5616 5614
5653 5647 5641 5636 5630 5625 5621 5616 5613 5609 5605 5601 5597 5593 5590 5588 5586 5584 5583 5583 5583 5584 5585 5587 5588 5590 5592 5595 5598 5602 5605 5608 5609 5610 5611 5611 5612 5612 5612 5612 5611 5610 5607
5654 5648 5643 5637 5632 5627 5623 5618 5615 5612 5609 5605 5602 5598 5594 5591 5589 5586 5584 5583 5583 5583 5583 5582 5583 5585 5588 5591 5594 5596 5600 5602 5605 5607 5607 5608 5608 5607 5607 5606 5606 5604 5601
5657 5651 5646 5641 5636 5631 5626 5622 5618 5615 5612 5609 5605 5602 5599 5595 5592 5589 5587 5585 5584 5584 5582 5581 5581 5582 5585 5587 5590 5593 5595 5598 5601 5603 5604 5604 5604 5604 5603 5602 5601 5599 5597
5659 5655 5650 5645 5641 5637 5632 5627 5623 5618 5615 5611 5609 5606 5603 5599 5596 5593 5591 5590 5586 5584 5582 5581 5581 5582 5584 5586 5588 5591 5593 5596 5598 5599 5600 5601 5601 5601 5600 5598 5597 5596 5593
5661 5657 5653 5649 5646 5641 5637 5632 5627 5622 5617 5613 5610 5608 5606 5603 5600 5597 5594 5591 5587 5585 5584 5584 5584 5584 5586 5587 5589 5591 5593 5594 5596 5597 5598 5598 5599 5599 5597 5596 5595 5594 5591
5663 5661 5657 5652 5648 5644 5640 5635 5629 5624 5620 5616 5613 5610 5608 5605 5601 5597 5595 5593 5590 5589 5588 5587 5587 5588 5588 5590 5591 5592 5593 5594 5595 5596 5597 5598 5598 5598 5596 5595 5593 5591 5588
5664 5662 5661 5655 5651 5647 5643 5638 5633 5628 5624 5620 5617 5615 5613 5608 5604 5601 5598 5596 5595 5593 5592 5591 5591 5591 5592 5592 5593 5594 5595 5595 5596 5597 5597 5598 5598 5597 5595 5593 5591 5589 5587
5666 5664 5661 5658 5654 5651 5646 5642 5637 5633 5629 5625 5621 5619 5617 5612 5609 5605 5603 5601 5599 5598 5597 5596 5594 5594 5594 5595 5595 5595 5596 5596 5597 5597 5598 5598 5597 5595 5593 5591 5589 5587 5585
5666 5666 5664 5661 5658 5655 5650 5646 5642 5637 5633 5630 5627 5623 5620 5617 5613 5611 5608 5606 5604 5603 5601 5600 5598 5597 5597 5597 5597 5597 5597 5596 5597 5598 5598 5597 5596 5594 5592 5591 5589 5587 5585
5667 5667 5665 5663 5660 5657 5653 5650 5647 5643 5639 5636 5632 5629 5625 5622 5619 5617 5614 5611 5609 5607 5605 5604 5602 5601 5600 5600 5599 5599 5599 5599 5599 5599 5599 5598 5596 5594 5592 5590 5588 5587 5583
5667 5667 5667 5665 5663 5660 5657 5655 5651 5648 5645 5642 5638 5635 5632 5628 5625 5622 5619 5617 5614 5612 5610 5608 5607 5605 5604 5603 5602 5602 5602 5602 5602 5601 5600 5599 5597 5594 5592 5590 5587 5585 5581
5667 5668 5668 5667 5666 5664 5661 5659 5656 5653 5650 5647 5644 5640 5637 5634 5630 5627 5624 5622 5619 5617 5615 5613 5611 5609 5608 5607 5606 5605 5605 5605 5604 5603 5602 5600 5597 5594 5591 5588 5586 5582 5579